Weather Roundup
Issued by NWS Springfield, MO

Home | Current Version | Previous Version | Text Only | Print | Product List | Glossary On
Versions: 1 2 3 4 5 6 7 8 9 10 11 12 13 14 15 16 17 18 19 20 21 22 23 24 25 26 27 28 29 30 31 32 33 34 35 36 37 38 39 40 41 42 43 44 45 46 47 48 49 50
000
NZUS99 KSGF 010007
HRRSGF

HOURLY WEATHER
NATIONAL WEATHER SERVICE SPRINGFIELD MO
700 PM CDT FRI JUL 31 2015

......SGF CWA......

CITY           SKY/WX    TMP DP  RH WIND       PRES   REMARKS
SPRINGFIELD    SUNNY     87  54  32 W6        30.08F
6HR MIN TEMP:  87; 6HR MAX TEMP:  90;

JOPLIN         SUNNY     88  61  40 S9        30.06F
6HR MIN TEMP:  88; 6HR MAX TEMP:  92;

WEST PLAINS    SUNNY     86  62  44 W5        30.09F
6HR MIN TEMP:  86; 6HR MAX TEMP:  91;

ROLLA          SUNNY     85  63  47 SW6       30.05F
6HR MIN TEMP:  85; 6HR MAX TEMP:  90;

OSAGE BEACH    SUNNY     86  66  51 CALM      30.05F
BRANSON        MOSUNNY   86  59  39 CALM      30.09F

......SURROUNDING SGF CWA......

CITY           SKY/WX    TMP DP  RH WIND       PRES   REMARKS
CHANUTE        SUNNY     89  71  55 S6        30.06S HX  95
PARSONS        SUNNY     87  74  64 S5        30.06F HX  95
COFFEYVILLE    SUNNY     86  72  62 S7        30.05F HX  92
EMPORIA        SUNNY     89  67  47 SE5       30.06F HX  92
GROVE OK       SUNNY     88  61  40 SE5       30.08S
ROGERS AR      MOSUNNY   87  59  38 S6        30.10F
SILOAM SPRINGS SUNNY     82  59  44 CALM      30.08F
HARRISON AR    SUNNY     86  64  47 E3        30.09S
NEAR YELLVILLE SUNNY     90  63  40 NE5       30.05S HX  90

......KANSAS AND MISSOURI......

CITY           SKY/WX    TMP DP  RH WIND       PRES   REMARKS
KANSAS CTY INT MOSUNNY   86  69  56 SW3       30.05F HX  90
DOWNTOWN KC    SUNNY     88  67  49 NW6       30.03F HX  91
COLUMBIA       SUNNY     87  66  49 NW6       30.04F
SEDALIA        SUNNY     88  63  43 NW5       30.06F
ST JOSEPH      MOSUNNY   88  73  61 CALM      30.04S HX  95
ST LOUIS       MOSUNNY   89  62  40 N7        30.01F
SPIRIT OF STL  MOSUNNY   88  70  55 SW5       30.00F HX  93
KIRKSVILLE     PTSUNNY   83  72  69 CALM      30.05S
WICHITA        MOSUNNY   89  69  51 S8        30.06F HX  93
TOPEKA         SUNNY     90  67  46 E3        30.05S HX  93
OLATHE         SUNNY     87  64  46 W6        30.06S

......TENNESSEE......

CITY           SKY/WX    TMP DP  RH WIND       PRES   REMARKS
MEMPHIS        MOSUNNY   89  61  38 N13       30.01S
NASHVILLE      PTCLDY    86  61  42 N10G17    30.01S

......ARKANSAS.......

CITY           SKY/WX    TMP DP  RH WIND       PRES   REMARKS
FAYETTEVILLE   SUNNY     81  66  60 CALM      30.08F
FT SMITH       MOSUNNY   88  59  37 NE7       30.02F
LITTLE ROCK    MOSUNNY   91  63  39 E9        30.02S HX  92

......OKLAHOMA.......

CITY           SKY/WX    TMP DP  RH WIND       PRES   REMARKS
TULSA          CLOUDY    85  70  60 SE7       30.04S
PONCA CITY     PTSUNNY   86  73  65 SE13      30.05F HX  93
MCALESTER      MOSUNNY   88  69  53 CALM      30.04F HX  92
OKLAHOMA CITY  CLOUDY    75  72  90 SE9       30.06F

......IOWA............

CITY           SKY/WX    TMP DP  RH WIND       PRES   REMARKS
DES MOINES     MOSUNNY   86  59  39 E5        30.03S
QUAD CITIES    SUNNY     83  54  36 NW13G23   30.00S

......ILLINOIS........

CITY           SKY/WX    TMP DP  RH WIND       PRES   REMARKS
QUINCY         SUNNY     83  66  56 W5        30.02F
CHICAGO        SUNNY     82  48  30 NW17      29.93S



USA.gov is the U.S. government's official web portal to all federal, state and local government web resources and services.